Location: Artiguedieu
(43.5000°N, 0.5454°E)
Time: 11:19:44
(UTC+00:00)

Okean 1 - Pass Details

Date: 06 December 2020
Orbit: 537 x 555 km, 82.5° (Epoch: 28 January)

Event Time Altitude Azimuth Distance (km) Brightness Sun altitude
Rises 06:37:48 0° 344° (NNW) 2,748 6.5 -7.0°
Reaches altitude 10° 06:40:03 10° 338° (NNW) 1,848 5.6 -6.7°
Maximum altitude 06:43:54 42° 267° (W) 798 3.8 -6.0°
Drops below altitude 10° 06:47:43 10° 196° (SSW) 1,831 6.1 -5.4°
Sets 06:49:56 0° 190° (S) 2,719 7.1 -5.0°
